Ashland, WI

1:14 PM CST on February 10, 2016 (GMT -0600)
Kennedy Memorial

Weather History for KASX - January, 2012

Change the Weather History Date:

Thursday, January 26, 2012

  Actual Average Record
Temperature  
Mean Temperature 32 °F -  
Max Temperature 34 °F 22 °F 47 °F (1981)
Min Temperature 27 °F 0 °F -26 °F (1972)
Degree Days  
Heating Degree Days 33    
Moisture  
Dew Point 27 °F    
Average Humidity 79    
Maximum Humidity 87    
Minimum Humidity 72    
Precipitation  
Precipitation 0.00 in - - ()
Sea Level Pressure  
Sea Level Pressure 29.70 in    
Wind  
Wind Speed 11 mph (SW)    
Max Wind Speed 14 mph    
Max Gust Speed 25 mph    
Visibility 6 miles    
Events Snow    
Averages and records for this station are not official NWS values.
T = Trace of Precipitation, MM = Missing Value Source: NWS Daily Summary

Daily Weather History Graph

Daily Weather History Graph

Search for Another Location

Airport or City:

Trip Planner

Search our weather history database for the weather conditions in past years. The results will help you decide how hot, cold, wet, or windy it might be!

Date:

Astronomy

Jan. 26, 2012 Rise Set
Actual Time 7:34 AM CST 4:58 PM CST
Civil Twilight 7:01 AM CST 5:30 PM CST
Nautical Twilight 6:25 AM CST 6:07 PM CST
Astronomical Twilight 5:49 AM CST 6:43 PM CST
Moon 8:46 AM CST (1/26) 9:09 PM CST (1/26)
Length of Visible Light 10h 29m
Length of Day
9h 23m
Waxing Crescent, 12% of the Moon is Illuminated
Jan 26
Waxing Crescent
Jan 30
First Quarter
Feb 7
Full
Feb 14
Last Quarter
Feb 21
New

Hourly Weather History & Observations

Time (CST) Temp. Windchill Dew Point Humidity Pressure Visibility Wind Dir Wind Speed Gust Speed Precip Events Conditions
12:53 AM 30.9 °F 20.7 °F 24.1 °F 76% 29.84 in 8.0 mi SSW 13.8 mph 25.3 mph N/A   Overcast
1:53 AM 30.9 °F 21.2 °F 24.1 °F 76% 29.82 in 7.0 mi SSW 12.7 mph - N/A   Overcast
2:53 AM 30.9 °F 21.2 °F 25.0 °F 79% 29.81 in 7.0 mi SSW 12.7 mph 20.7 mph N/A   Overcast
3:53 AM 30.9 °F 23.5 °F 26.1 °F 82% 29.76 in 6.0 mi South 8.1 mph - N/A   Haze
4:53 AM 32.0 °F 23.0 °F 27.0 °F 82% 29.75 in 6.0 mi SSW 11.5 mph - N/A   Haze
5:53 AM 32.0 °F 22.5 °F 27.0 °F 82% 29.75 in 6.0 mi SW 12.7 mph - N/A   Haze
6:53 AM 32.0 °F 23.6 °F 27.0 °F 82% 29.73 in 5.0 mi SSW 10.4 mph - N/A   Haze
7:53 AM 32.0 °F 22.1 °F 27.0 °F 82% 29.70 in 4.0 mi SSW 13.8 mph - N/A   Haze
8:32 AM 32.0 °F 22.1 °F 26.6 °F 80% 29.65 in 4.0 mi SSW 13.8 mph - N/A   Haze
8:53 AM 32.0 °F 23.6 °F 27.0 °F 82% 29.68 in 4.0 mi SSW 10.4 mph - N/A   Haze
9:53 AM 33.1 °F 24.4 °F 27.0 °F 78% 29.69 in 4.0 mi SW 11.5 mph - N/A   Haze
10:53 AM 33.1 °F 23.9 °F 27.0 °F 78% 29.70 in 5.0 mi SW 12.7 mph - N/A   Haze
11:53 AM 33.1 °F 24.9 °F 27.0 °F 78% 29.69 in 5.0 mi SW 10.4 mph - N/A   Haze
12:53 PM 33.1 °F 23.9 °F 27.0 °F 78% 29.65 in 5.0 mi SW 12.7 mph - N/A   Haze
1:53 PM 33.1 °F 24.9 °F 27.0 °F 78% 29.65 in 5.0 mi WSW 10.4 mph - N/A   Haze
2:41 PM 33.8 °F 25.8 °F 28.4 °F 81% 29.62 in 2.5 mi West 10.4 mph - 0.00 in Snow Light Snow
2:49 PM 32.0 °F 25.6 °F 28.4 °F 87% 29.62 in 0.8 mi WSW 6.9 mph - 0.00 in Snow Light Snow
2:53 PM 33.1 °F 26.9 °F 28.9 °F 85% 29.65 in 1.0 mi WSW 6.9 mph - 0.00 in Snow Light Snow
3:00 PM 33.8 °F 27.0 °F 28.4 °F 81% 29.62 in 3.0 mi WSW 8.1 mph - 0.00 in Snow Light Snow
3:53 PM 33.1 °F 27.7 °F 28.9 °F 85% 29.66 in 5.0 mi SW 5.8 mph - 0.00 in   Overcast
4:23 PM 33.8 °F 27.7 °F 28.4 °F 81% 29.63 in 5.0 mi SW 6.9 mph - N/A   Haze
4:53 PM 34.0 °F 26.6 °F 28.0 °F 79% 29.67 in 6.0 mi WSW 9.2 mph - N/A   Haze
5:44 PM 33.8 °F 27.0 °F 28.4 °F 81% 29.66 in 8.0 mi WSW 8.1 mph - N/A   Overcast
5:53 PM 34.0 °F 26.6 °F 28.0 °F 79% 29.70 in 8.0 mi WSW 9.2 mph - N/A   Overcast
6:21 PM 33.8 °F 27.7 °F 28.4 °F 81% 29.67 in 8.0 mi WSW 6.9 mph - N/A   Overcast
6:53 PM 34.0 °F 26.6 °F 27.0 °F 75% 29.70 in 10.0 mi West 9.2 mph - N/A   Overcast
7:53 PM 34.0 °F 26.6 °F 26.1 °F 73% 29.70 in 10.0 mi West 9.2 mph - N/A   Overcast
8:53 PM 33.1 °F 26.1 °F 25.0 °F 72% 29.70 in 10.0 mi West 8.1 mph - N/A   Overcast
9:53 PM 32.0 °F 24.2 °F 24.1 °F 73% 29.70 in 10.0 mi West 9.2 mph - N/A   Overcast
10:53 PM 30.0 °F 22.4 °F 21.9 °F 72% 29.71 in 10.0 mi West 8.1 mph - N/A   Clear
11:53 PM 27.0 °F 19.5 °F 19.9 °F 75% 29.73 in 10.0 mi West 6.9 mph - N/A   Clear